sat.trackr.live / text

‹ back to catalog

ONEWEB-0401

NORAD 50481 · 2021-132N

PAYLOAD ACTIVE UNKNOWN

§ Identity

Operator
Country
UK
Launch date
2021-12-27
Launch site
TYMSC
Launch vehicle
Mass (kg)
RCS (m²)

Purposes: comms

External: N2YO · Heavens-Above · Gunter

§ Orbital elements

Epoch: 2026-09-20T03:03:39.475008Z

Period
109.20 min
Inclination
87.9168°
Eccentricity
0.0002079
Mean motion
13.18685213 rev/d
Perigee alt
1,188.2 km
Apogee alt
1,191.3 km
Semi-major
7,567.9 km
B*
1.3015e-4
RAAN
316.5829°
Arg perigee
92.0068°
Mean anomaly
268.1302°
Rev number
23,412

§ Raw data

ONEWEB-04011 50481U 21132N   26263.12754022  .00000064  00000+0  13015-3 0  99912 50481  87.9168 316.5829 0002079  92.0068 268.1302 13.18685213234128

JSON: /api/v1/satellites/50481 · /tle

For live sub-satellite position, see the globe view (requires WebGL).

§ Visibility from observer

Set your observer location to see the next 7 days of passes ≥ 10°. The values pass through the URL so the page stays shareable.

No JS? Fill the form by hand. The geolocation button needs JavaScript.